Starlink 31001

operational
NORAD ID: 58527 Int'l Des: 2023-191 Owner: SPXS Country: US Constellation: starlink
LEOCIRCULAR

About Starlink 31001

Description loading...

Live Position

Loading 3D Globe...

Upcoming Passes

Altitude History

Altitude vs Time

uPlot chart will show altitude changes over time

Two-Line Element Set

1 58527U 23191V 25303.84632060 .00001087 00000-0 95517-4 0 9992
2 58527 43.0035 91.0682 0001495 273.4314 86.6358 15.02538054105918
Epoch: Oct 30, 2025 • Age: 12 hours

Current Status

Altitude 571.1 km
Velocity 7.58 km/s
Sub-Earth Point -42.35°S, 175.35°E
Launch Date Dec 7, 2023
Age 1.9 years
Type internet

Technical Details

Classification Payload
Mass 730.00 kg
Dry Mass 700.00 kg
Total Mass 730.00 kg
Length 0.30 m
Diameter 4.10 m
Span 29.00 m
Shape Box + pan
Manufacturer SPXS
Bus Type Starlink V2M
Phase Status In Orbit
Owner/State SPXS/US

Large Constellations

Loading constellations...